Location: Harwich
(41.7160°N, 69.9939°W)
Time: 23:38:05
(UTC+02:00)

Oscar 11 - Visible Passes

Search period start: 13 September 2024 00:00
Search period end: 23 September 2024 00:00
Orbit: 600 x 612 km, 97.7° (Epoch: 12 September)

Date Brightness Start Highest point End Pass type
(mag) Time Alt. Az. Time Alt. Az. Time Alt. Az.
13 Sep 8.2 09:57:51 10° NNE 10:01:51 40° E 10:03:28 28° SE visible
13 Sep 8.6 11:34:30 10° NNW 11:37:23 18° WNW 11:40:16 10° WSW visible
14 Sep 7.5 10:10:42 10° NNE 10:14:52 56° E 10:16:30 33° SSE visible
14 Sep 8.9 11:48:09 10° NNW 11:50:14 14° WNW 11:52:19 10° W visible
15 Sep 7.0 10:23:36 10° NNE 10:27:51 81° ESE 10:29:30 36° S visible
16 Sep 6.9 10:36:34 10° N 10:40:48 73° WNW 10:42:30 35° SSW visible
17 Sep 9.7 09:15:26 10° ENE 09:17:34 13° E 09:18:36 12° ESE visible
17 Sep 7.2 10:49:35 10° N 10:53:42 51° WNW 10:55:29 30° SW visible
18 Sep 9.3 09:27:37 10° NE 09:30:37 19° E 09:31:35 17° ESE visible
18 Sep 7.6 11:02:40 10° N 11:06:34 37° WNW 11:08:27 24° WSW visible
19 Sep 8.9 09:40:05 10° NE 09:43:37 25° E 09:44:32 23° ESE visible
19 Sep 8.0 11:15:50 10° NNW 11:19:24 27° WNW 11:21:23 19° WSW visible
20 Sep 8.4 09:52:41 10° NNE 09:56:35 35° E 09:57:28 32° SE visible
20 Sep 8.4 11:29:05 10° NNW 11:32:11 20° WNW 11:34:20 14° WSW visible
21 Sep 7.8 10:05:24 10° NNE 10:09:31 49° E 10:10:23 42° SE visible
21 Sep 8.7 11:42:30 10° NNW 11:44:56 15° WNW 11:47:15 10° W visible
22 Sep 7.2 10:18:11 10° NNE 10:22:25 70° E 10:23:17 52° SSE visible
22 Sep 9.0 11:56:23 10° NW 11:57:40 11° WNW 11:58:55 10° W visible
